User: anonymous   Login
Location: ??
(34.9170°N, 135.5016°E)
Time: 15:03:26
(UTC+00:00)
Language:

RS-15 - Orbit

View from above orbital plane
View from above orbital plane
View from above satellite
View from above satellite

Ground track
Ground track

The orbit data is extracted from the following two-line orbital elements,

1 23439U 94085A   21109.99016113 -.00000037  00000-0  15882-3 0  9998
2 23439  64.8131 110.5119 0159516 345.6416  14.0002 11.27570988 83747
Epoch (UTC): 19 April 2021 23:45:49
Eccentricity: 0.0159516
inclination: 64.8131°
perigee height: 1888 km
apogee height: 2156 km
right ascension of ascending node: 110.5119°
argument of perigee: 345.6416°
revolutions per day: 11.27570988
mean anomaly at epoch: 14.0002°
orbit number at epoch: 8374

The dashed part of the orbit path shows where the satellite is in the earth's shadow,  

DLR